Weather History for Falls City, NE

Change the Weather History Date:

Tuesday, January 28, 2014

  Actual Average Record
Temperature  
Mean Temperature 10 °F -  
Max Temperature 24 °F 36 °F 69 °F (2013)
Min Temperature -5 °F 13 °F -10 °F (1977)
Degree Days  
Heating Degree Days 56    
Moisture  
Dew Point -4 °F    
Average Humidity 58    
Maximum Humidity 83    
Minimum Humidity 32    
Precipitation  
Precipitation 0.00 in - - ()
Sea Level Pressure  
Sea Level Pressure 30.45 in    
Wind  
Wind Speed 3 mph (West)    
Max Wind Speed 16 mph    
Max Gust Speed -    
Visibility 10 miles    
Events      
Averages and records for this station are not official NWS values.
T = Trace of Precipitation, MM = Missing Value Source: NWS Daily Summary

Daily Weather History Graph

Daily Weather History Graph

Search for Another Location

Airport:

Trip Planner

Search our weather history database for the weather conditions in past years. The results will help you decide how hot, cold, wet, or windy it might be!

Date:

Astronomy

Jan. 28, 2014 Rise Set
Actual Time 7:34 AM CST 5:36 PM CST
Civil Twilight 7:05 AM CST 6:05 PM CST
Nautical Twilight 6:32 AM CST 6:38 PM CST
Astronomical Twilight 6:00 AM CST 7:10 PM CST
Moon 5:17 AM CST (1/28) 3:27 PM CST (1/28)
Length of Visible Light 10h 59m
Length of Day
10h 02m
Waning Crescent, 7% of the Moon is Illuminated
Jan 28
Waning Crescent
Jan 30
New
Feb 6
First Quarter
Feb 14
Full
Feb 22
Last Quarter

Hourly Weather History & Observations

Time (CST) Temp. Windchill Dew Point Humidity Pressure Visibility Wind Dir Wind Speed Gust Speed Precip Events Conditions
12:53 AM -0.9 °F - -8.0 °F 72% 30.56 in 10.0 mi Calm Calm - N/A   Overcast
1:53 AM -4.0 °F -14.6 °F -8.0 °F 83% 30.54 in 10.0 mi NNW 4.6 mph - N/A   Clear
2:53 AM -2.0 °F - -9.9 °F 69% 30.53 in 10.0 mi Calm Calm - N/A   Clear
3:53 AM -2.0 °F - -8.0 °F 76% 30.53 in 10.0 mi Calm Calm - N/A   Clear
4:53 AM -5.1 °F - -9.9 °F 80% 30.53 in 10.0 mi Calm Calm - N/A   Clear
5:53 AM -5.1 °F - -9.9 °F 80% 30.53 in 10.0 mi Calm Calm - N/A   Clear
6:53 AM -4.0 °F - -9.0 °F 79% 30.54 in 10.0 mi Calm Calm - N/A   Clear
7:53 AM -4.0 °F - -9.0 °F 79% 30.54 in 10.0 mi Calm Calm - N/A   Clear
8:53 AM 1.9 °F - -4.0 °F 76% 30.54 in 10.0 mi Calm Calm - N/A   Clear
9:53 AM 10.0 °F 3.6 °F -0.9 °F 61% 30.54 in 10.0 mi WSW 3.5 mph - N/A   Clear
10:53 AM 15.1 °F 7.7 °F 1.0 °F 54% 30.52 in 10.0 mi Variable 4.6 mph - N/A   Clear
11:53 AM 19.9 °F 10.1 °F -0.0 °F 42% 30.49 in 10.0 mi NW 8.1 mph - N/A   Clear
12:53 PM 21.0 °F 9.9 °F 1.9 °F 44% 30.45 in 10.0 mi West 10.4 mph - 0.00 in   Partly Cloudy
1:53 PM 24.1 °F 11.5 °F -0.9 °F 34% 30.40 in 10.0 mi West 15.0 mph - 0.00 in   Mostly Cloudy
2:53 PM 23.0 °F 9.6 °F -2.9 °F 32% 30.38 in 10.0 mi West 16.1 mph - N/A   Scattered Clouds
3:53 PM 23.0 °F 11.1 °F -2.0 °F 34% 30.37 in 10.0 mi West 12.7 mph - N/A   Scattered Clouds
4:53 PM 23.0 °F 10.6 °F -2.0 °F 34% 30.35 in 10.0 mi West 13.8 mph - N/A   Clear
5:53 PM 17.1 °F 7.6 °F -2.0 °F 43% 30.36 in 10.0 mi WNW 6.9 mph - N/A   Clear
6:53 PM 12.0 °F 1.5 °F -2.9 °F 51% 30.37 in 10.0 mi WNW 6.9 mph - N/A   Clear
7:53 PM 15.1 °F - -4.0 °F 43% 30.37 in 10.0 mi Calm Calm - N/A   Clear
8:53 PM 12.9 °F 6.9 °F -4.0 °F 47% 30.36 in 10.0 mi SSW 3.5 mph - N/A   Clear
9:53 PM 10.0 °F 0.4 °F -2.9 °F 56% 30.35 in 10.0 mi SSW 5.8 mph - N/A   Clear
10:53 PM 9.0 °F -0.9 °F -2.0 °F 61% 30.33 in 10.0 mi SSW 5.8 mph - N/A   Clear
11:53 PM 5.0 °F - -2.9 °F 70% 30.32 in 10.0 mi Calm Calm - N/A   Clear